This demonstration page uses our WeatherBlox Daily Observations layout. Learn more.

Left ArrowRight Arrow

39.12711, -84.51439

Hourly Observations for November 21, 2020

Temp ( °F °C ) Dew Point ( °F °C ) Humidity (%) Winds ( mph kmh ) Pressure ( in mb ) Visibility ( mi km ) Precip ( " mm )
12:53 am 00:53 Cloudy 56 13.3 54 12.2 93 93 Calm 30.40 1029 7 11 0.00 0.00
1:53 am 01:53 Cloudy with Mist and Fog 55 12.8 53 11.7 93 93 Calm 30.40 1029 3 5 0.00 0.00
2:13 am 02:13 Cloudy with Light Rain 54 12.2 53 11.7 97 97 Calm 30.40 1030 3 4 0.00 0.00
2:34 am 02:34 Cloudy with Light Rain 55 12.8 54 12.2 96 96 Calm 30.40 1030 2 2 0.01 0.25
2:48 am 02:48 Cloudy with Light Rain 55 13 54 12 94 94 Calm 30.40 1030 1 1 0.02 0.51
2:53 am 02:53 Cloudy with Light Rain 54 12.2 54 12.2 100 100 Calm 30.40 1030 1 1 0.02 0.51
3:00 am 03:00 Cloudy with Light Rain 54 12.2 54 12.2 100 100 Calm 30.40 1030 1 1 0.00 0.00
3:17 am 03:17 Cloudy with Mist and Fog 54 12.2 53 11.7 97 97 NE 3 6 30.40 1030 1 1 0.00 0.00
3:27 am 03:27 Cloudy with Mist and Fog 54 12.2 53 11.7 97 97 Calm 30.40 1030 1 2 0.00 0.00
3:36 am 03:36 Cloudy with Mist and Fog 55 12.8 54 12.2 96 96 N 3 6 30.40 1030 1 2 0.00 0.00
3:53 am 03:53 Cloudy with Mist and Fog 54 12.2 53 11.7 97 97 Calm 30.40 1030 1 2 0.00 0.00
4:13 am 04:13 Cloudy with Light Rain 54 12.2 53 11.7 97 97 Calm 30.40 1030 1 2 0.00 0.00
4:33 am 04:33 Cloudy with Light Rain 54 12.2 53 11.7 97 97 Calm 30.40 1030 1 1 0.01 0.25
4:45 am 04:45 Cloudy with Light Rain 54 12.2 53 11.7 97 97 Calm 30.40 1030 1 1 0.01 0.25
4:47 am 04:47 Cloudy with Light Rain 54 12 54 12 100 100 NNE 3 6 30.40 1030 1 2 0.01 0.25
4:53 am 04:53 Cloudy with Mist and Fog 54 12.2 54 12.2 100 100 Calm 30.40 1029 1 2 0.01 0.25
5:11 am 05:11 Cloudy with Mist and Fog 55 12.8 53 11.7 93 93 NNE 3 6 30.40 1030 2 3 0.00 0.00
5:16 am 05:16 Cloudy with Mist and Fog 55 12.8 53 11.7 93 93 NNE 5 7 30.40 1030 2 3 0.00 0.00
5:25 am 05:25 Cloudy with Mist and Fog 54 12.2 53 11.7 97 97 NE 3 6 30.41 1030 2 3 0.00 0.00
5:29 am 05:29 Cloudy with Mist and Fog 54 12.2 53 11.7 97 97 NE 3 6 30.41 1030 2 3 0.00 0.00
5:43 am 05:43 Cloudy with Mist and Fog 54 12.2 53 11.7 97 97 NE 3 6 30.41 1030 3 4 0.00 0.00
5:53 am 05:53 Cloudy with Light Rain 54 12.2 53 11.7 97 97 N 3 6 30.41 1030 2 3 0.01 0.25
6:01 am 06:01 Cloudy with Light Rain 54 12.2 52 11.1 93 93 NNE 7 11 30.42 1030 3 5 0.00 0.00
6:37 am 06:37 Cloudy with Light Rain 52 11.1 49 9.4 89 89 N 13 20 30.44 1031 3 5 0.01 0.25
6:53 am 06:53 Cloudy with Light Rain 51 10.6 48 8.9 89 89 N 10 17 30.43 1031 4 6 0.01 0.25
7:53 am 07:53 Cloudy with Light Rain 49 9.4 47 8.3 93 93 N 9 15 30.45 1031 4 6 0.01 0.25
7:58 am 07:58 Cloudy with Light Rain 49 9.4 47 8.3 93 93 N 8 13 30.47 1032 4 6 0.01 0.25
8:53 am 08:53 Cloudy with Light Rain 47 8.3 44 6.7 90 90 NE 10 17 30.48 1032 3 5 0.03 0.76
9:51 am 09:51 Cloudy with Light Rain 46 8 45 7 93 93 NNE 5 7 30.50 1033 4 6 0.01 0.25
9:53 am 09:53 Cloudy with Light Rain 47 8.3 44 6.7 90 90 NNE 6 9 30.49 1032 4 6 0.01 0.25
10:53 am 10:53 Cloudy with Mist and Fog 48 8.9 44 6.7 86 86 NNE 7 11 30.48 1032 6 10 0.00 0.00
11:53 am 11:53 Cloudy 48 8.9 44 6.7 86 86 NE 7 11 30.47 1032 8 13 0.00 0.00
12:53 pm 12:53 Cloudy 48 8.9 43 6.1 83 83 NNE 6 9 30.46 1031 10 16 0.00 0.00
1:53 pm 13:53 Cloudy 48 8.9 43 6.1 83 83 NE 6 9 30.44 1031 10 16 0.00 0.00
2:53 pm 14:53 Cloudy 48 8.9 41 5 77 77 NNE 7 11 30.44 1031 10 16 0.00 0.00
3:53 pm 15:53 Cloudy 48 8.9 42 5.6 80 80 N 5 7 30.43 1031 10 16 0.00 0.00
4:53 pm 16:53 Cloudy 48 8.9 42 5.6 80 80 NNE 8 13 30.43 1031 10 16 0.00 0.00
5:53 pm 17:53 Cloudy 48 8.9 42 5.6 80 80 NE 6 9 30.42 1030 10 16 0.00 0.00
6:53 pm 18:53 Cloudy 47 8.3 42 5.6 83 83 NE 5 7 30.42 1030 10 16 0.00 0.00
7:53 pm 19:53 Cloudy 47 8.3 42 5.6 83 83 NE 6 9 30.40 1030 10 16 0.00 0.00
8:53 pm 20:53 Cloudy 47 8.3 42 5.6 83 83 NNE 6 9 30.38 1029 10 16 0.00 0.00
9:53 pm 21:53 Cloudy 47 8.3 43 6.1 86 86 NE 6 9 30.37 1028 10 16 0.00 0.00
10:53 pm 22:53 Cloudy 47 8.3 43 6.1 86 86 NE 6 9 30.35 1028 9 14 0.00 0.00
11:53 pm 23:53 Cloudy 47 8.3 43 6.1 86 86 NE 6 9 30.32 1027 9 14 0.00 0.00

Powered by AerisWeather